DW4174 Weather Reports


time (UTC)temp
C
wind
direction
speed
KPH
gust
KPH
rain 1hr
cm
rain 24hr
cm
rain mn
cm
humidity
%
barometer
mb
20260507195710 35 213 4.8 12.9 0.00 0.00 0.00 9 1009.8
20260507194811 34 188 4.8 11.3 0.00 0.00 0.00 9 1009.9
20260507193912 34 184 4.8 16.1 0.00 0.00 0.00 10 1010.2
20260507193011 34 213 4.8 12.9 0.00 0.00 0.00 10 1010.3
20260507192111 34 154 3.2 12.9 0.00 0.00 0.00 10 1010.4
20260507191211 32 166 3.2 8.0 0.00 0.00 0.00 10 1010.6
20260507190310 32 161 4.8 6.4 0.00 0.00 0.00 10 1010.8
20260507184510 32 141 4.8 9.7 0.00 0.00 0.00 10 1010.9
20260507183610 32 117 6.4 12.9 0.00 0.00 0.00 11 1011.1
20260507182710 32 172 4.8 11.3 0.00 0.00 0.00 11 1011.2
20260507181810 32 249 4.8 14.5 0.00 0.00 0.00 12 1011.3
20260507180910 32 241 4.8 14.5 0.00 0.00 0.00 12 1011.4
20260507180011 31 196 6.4 20.9 0.00 0.00 0.00 13 1011.5
20260507175110 31 127 4.8 20.9 0.00 0.00 0.00 13 1011.5
20260507174210 31 160 4.8 11.3 0.00 0.00 0.00 15 1011.7
20260507173310 31 175 4.8 12.9 0.00 0.00 0.00 15 1011.9
20260507171511 30 151 6.4 14.5 0.00 0.00 0.00 15 1011.9
20260507170610 30 156 6.4 17.7 0.00 0.00 0.00 17 1012.0
20260507165710 28 146 3.2 14.5 0.00 0.00 0.00 18 1012.0
20260507164810 28 94 4.8 6.4 0.00 0.00 0.00 19 1012.1
20260507163910 28 116 4.8 11.3 0.00 0.00 0.00 19 1012.2
20260507163010 28 154 4.8 9.7 0.00 0.00 0.00 22 1012.1
20260507162110 27 150 3.2 9.7 0.00 0.00 0.00 23 1012.2
20260507161210 27 119 3.2 11.3 0.00 0.00 0.00 24 1012.3
20260507160310 27 129 4.8 8.0 0.00 0.00 0.00 24 1012.4
20260507155410 27 143 3.2 9.7 0.00 0.00 0.00 25 1012.5
20260507154510 27 99 4.8 11.3 0.00 0.00 0.00 24 1012.5
20260507153610 27 84 6.4 11.3 0.00 0.00 0.00 21 1012.5
20260507152710 26 91 8.0 12.9 0.00 0.00 0.00 22 1012.5
20260507151810 26 95 8.0 16.1 0.00 0.00 0.00 22 1012.5
20260507150910 26 87 8.0 16.1 0.00 0.00 0.00 22 1012.5
20260507150010 25 85 6.4 14.5 0.00 0.00 0.00 22 1012.4
20260507145110 25 66 6.4 16.1 0.00 0.00 0.00 23 1012.4
20260507144210 25 59 4.8 14.5 0.00 0.00 0.00 24 1012.4
20260507143310 24 38 3.2 8.0 0.00 0.00 0.00 26 1012.5
20260507142410 23 59 3.2 6.4 0.00 0.00 0.00 27 1012.5
20260507141510 22 60 3.2 6.4 0.00 0.00 0.00 29 1012.4
20260507135710 21 31 8.0 12.9 0.00 0.00 0.00 30 1012.2
20260507134810 21 25 9.7 19.3 0.00 0.00 0.00 30 1012.2
20260507133910 21 20 6.4 17.7 0.00 0.00 0.00 30 1012.2
20260507132110 20 25 4.8 16.1 0.00 0.00 0.00 32 1012.1
20260507131211 19 350 3.2 9.7 0.00 0.00 0.00 34 1012.1
20260507130310 18 26 3.2 6.4 0.00 0.00 0.00 34 1011.9
20260507125410 18 29 3.2 4.8 0.00 0.00 0.00 35 1012.0
20260507123610 18 24 4.8 8.0 0.00 0.00 0.00 34 1011.9
20260507121810 17 55 1.6 4.8 0.00 0.00 0.00 36 1012.0
20260507120910 17 55 1.6 3.2 0.00 0.00 0.00 37 1012.0
20260507120010 17 56 0.0 4.8 0.00 0.00 0.00 36 1011.9
20260507115110 17 57 1.6 4.8 0.00 0.00 0.00 36 1011.9
20260507114210 17 57 0.0 3.2 0.00 0.00 0.00 36 1011.7
20260507113310 17 57 0.0 3.2 0.00 0.00 0.00 36 1011.8
20260507111510 18 56 3.2 8.0 0.00 0.00 0.00 33 1011.7
20260507110610 19 46 4.8 8.0 0.00 0.00 0.00 32 1011.8
20260507105710 19 25 4.8 9.7 0.00 0.00 0.00 33 1011.9
20260507104810 18 27 3.2 6.4 0.00 0.00 0.00 33 1012.0
20260507103910 18 29 1.6 4.8 0.00 0.00 0.00 34 1012.1
20260507103010 18 29 0.0 4.8 0.00 0.00 0.00 34 1012.1
20260507102110 19 0 0.0 0.0 0.00 0.00 0.00 33 1012.2
20260507101210 18 30 1.6 4.8 0.00 0.00 0.00 34 1012.3
20260507100310 20 30 3.2 6.4 0.00 0.00 0.00 33 1012.4
20260507095409 20 31 3.2 6.4 0.00 0.00 0.00 33 1012.4
20260507094510 19 37 3.2 6.4 0.00 0.00 0.00 33 1012.5
20260507093610 19 50 1.6 6.4 0.00 0.00 0.00 34 1012.5
20260507092710 19 50 3.2 4.8 0.00 0.00 0.00 34 1012.5
20260507090910 20 51 3.2 4.8 0.00 0.00 0.00 32 1012.5
20260507090010 20 51 3.2 4.8 0.00 0.00 0.00 32 1012.5
20260507085110 20 52 3.2 6.4 0.00 0.00 0.00 32 1012.6
20260507083310 20 55 0.0 4.8 0.00 0.00 0.00 32 1012.7
20260507081509 20 343 1.6 3.2 0.00 0.00 0.00 34 1012.8
20260507080609 20 342 3.2 4.8 0.00 0.00 0.00 33 1012.8
20260507075710 20 341 1.6 6.4 0.00 0.00 0.00 33 1012.8
20260507074810 20 340 1.6 4.8 0.00 0.00 0.00 34 1012.8
20260507073909 20 340 1.6 3.2 0.00 0.00 0.00 34 1012.9
20260507073009 20 339 0.0 3.2 0.00 0.00 0.00 34 1012.8
20260507072110 20 0 0.0 0.0 0.00 0.00 0.00 33 1012.7
20260507070310 21 337 3.2 6.4 0.00 0.00 0.00 31 1012.8
20260507065409 21 330 1.6 6.4 0.00 0.00 0.00 31 1012.7
20260507064509 21 299 0.0 4.8 0.00 0.00 0.00 32 1012.7
20260507062709 21 0 0.0 0.0 0.00 0.00 0.00 31 1012.6
20260507060909 21 0 0.0 0.0 0.00 0.00 0.00 31 1012.6
20260507060009 21 0 0.0 0.0 0.00 0.00 0.00 30 1012.6
20260507054209 22 0 0.0 0.0 0.00 0.00 0.00 29 1012.6
20260507053309 22 0 0.0 0.0 0.00 0.00 0.00 29 1012.7
20260507052409 22 0 0.0 0.0 0.00 0.00 0.00 29 1012.7
20260507051509 22 266 0.0 1.6 0.00 0.00 0.00 28 1012.7
20260507050609 23 265 1.6 3.2 0.00 0.00 0.00 27 1012.6
20260507045709 23 265 1.6 3.2 0.00 0.00 0.00 26 1012.5
20260507043909 23 266 3.2 4.8 0.00 0.00 0.00 26 1012.4
20260507042109 24 264 3.2 6.4 0.00 0.00 0.00 25 1012.2
20260507041209 24 264 3.2 4.8 0.00 0.00 0.00 25 1012.1
20260507040309 25 260 3.2 6.4 0.00 0.00 0.00 24 1012.1
20260507035409 25 253 3.2 6.4 0.00 0.00 0.00 24 1011.8
20260507034509 24 264 3.2 9.7 0.00 0.00 0.00 24 1011.8
20260507033609 24 253 1.6 6.4 0.00 0.00 0.00 24 1011.7
20260507032709 25 252 1.6 4.8 0.00 0.00 0.00 24 1011.6
20260507030009 25 255 3.2 6.4 0.00 0.00 0.00 23 1011.2
20260507025109 26 249 3.2 8.0 0.00 0.00 0.00 23 1011.2
20260507024209 26 286 3.2 6.4 0.00 0.00 0.00 22 1011.0
20260507023309 26 287 4.8 9.7 0.00 0.00 0.00 21 1010.9
20260507022409 26 286 6.4 11.3 0.00 0.00 0.00 21 1010.9
20260507021510 27 285 6.4 11.3 0.00 0.00 0.00 20 1010.7
20260507020609 27 272 4.8 11.3 0.00 0.00 0.00 20 1010.7
20260507015709 27 257 3.2 12.9 0.00 0.00 0.00 19 1010.7
20260507014809 27 247 4.8 14.5 0.00 0.00 0.00 20 1010.7
20260507013009 28 269 4.8 14.5 0.00 0.00 0.00 19 1010.7
20260507012109 28 269 4.8 11.3 0.00 0.00 0.00 19 1010.7
20260507011209 28 236 4.8 9.7 0.00 0.00 0.00 19 1010.7
20260507010309 28 212 6.4 14.5 0.00 0.00 0.00 19 1010.7
20260507005409 28 229 4.8 19.3 0.00 0.00 0.00 19 1010.7
20260507003609 29 260 9.7 19.3 0.00 0.00 0.00 18 1010.6
20260507002709 29 264 9.7 20.9 0.00 0.00 0.00 18 1010.6
20260507001809 29 270 6.4 20.9 0.00 0.00 0.00 18 1010.5
20260507000909 29 262 9.7 14.5 0.00 0.00 0.00 18 1010.6
20260506235109 30 285 6.4 12.9 0.00 0.00 0.00 18 1010.6
20260506234209 30 281 6.4 16.1 0.00 0.00 0.00 18 1010.7
20260506233309 30 266 4.8 16.1 0.00 0.00 0.00 18 1010.8
20260506232409 29 236 4.8 11.3 0.00 0.00 0.00 19 1010.9
20260506231509 29 285 6.4 17.7 0.00 0.00 0.00 18 1011.0
20260506230609 29 213 3.2 11.3 0.00 0.00 0.00 18 1011.1
20260506225709 28 166 4.8 12.9 0.00 0.00 0.00 20 1011.1
20260506224809 28 196 6.4 12.9 0.00 0.00 0.00 19 1011.2
20260506223909 30 270 6.4 16.1 0.00 0.00 0.00 18 1011.3
20260506223010 30 292 8.0 16.1 0.00 0.00 0.00 18 1011.4
20260506222109 30 281 8.0 17.7 0.00 0.00 0.00 19 1011.5
20260506221209 30 304 6.4 24.1 0.00 0.00 0.00 19 1011.7
20260506220309 28 270 6.4 17.7 0.00 0.00 0.00 19 1011.8
20260506215409 28 264 4.8 22.5 0.00 0.00 0.00 19 1011.9
20260506214509 28 321 6.4 12.9 0.00 0.00 0.00 19 1012.0
20260506213609 28 314 9.7 16.1 0.00 0.00 0.00 19 1012.2
20260506212709 30 301 6.4 17.7 0.00 0.00 0.00 18 1012.3
20260506211808 28 68 3.2 12.9 0.00 0.00 0.00 19 1012.4
20260506210908 28 314 8.0 14.5 0.00 0.00 0.00 19 1012.7
20260506210009 28 317 9.7 30.6 0.00 0.00 0.00 19 1012.8
20260506205110 28 277 9.7 19.3 0.00 0.00 0.00 19 1012.9
20260506204209 29 248 6.4 20.9 0.00 0.00 0.00 19 1013.1
20260506203309 28 263 6.4 16.1 0.00 0.00 0.00 19 1013.2
20260506202409 27 299 8.0 17.7 0.00 0.00 0.00 20 1013.2
20260506200608 28 280 8.0 22.5 0.00 0.00 0.00 20 1013.4